EHI
0 0 0 0 0 0 0 0 0 0 0 0 0 0 0 0 0 0 0 0 0 0 0 0 0 0 0 0 0 0 0 0 0 0 0 0 0 0
0 0 0 0 0 0 0 0 0 0 0 0 0 0 0 0 0 0 0 0 0 0 0 0 0 0 0 0 0 0 0 0 0 0 0 0 0 0
0 0 0 0 0 0 0 0 0 0 0 0 0 0 0 0 0 0 0 0 0 0 0 0 0 0 0 0 0 0 0 0 0 0 0 0 0 0
0 0 0 0 0 0 0 0 0 0 0 0 0 0 0 0 0 0 0 0 0 0 0 0 0 0 0 0 0 0 0 0 0 0 0 0 0 0
0 0 0 0 0 0 0 0 0 0 0 0 0 0 0 0 0 0 0 0 0 0 0 0 0 0 0 0 0 0 0 0 0 0 0 0 0 0
0 0 0 0 0 0 0 0 0 0 0 0 0 0 0 0 0 0 0 0 0 0 0 0 0 0 0 0 0 0 0 0 0 0 0 0 0 0
0 0 0 0 0 0 0 0 0 0 0 0 0 0 0 0 0 0 0 0 0 0 0 0 0 0 0 0 0 0 0 0 0 0 0 0 0 0
0 0 0 0 0 0 0 0 0 0 0 0 0 0 0 0 0 0 0 0 0 0 0 0 0 0 0 0 0 0 0 0 0 0 0 0 0 0
0 0 0 0 0 0 0 0 0 0 0 0 0 0 0 0 0 0 0 0 0 0 0 0 0 0 0 0 0 0 0 0 0 0 0 0 0 0
0 0 0 0 0 0 0 0 0 0 0 0 0 0 0 0 0 0 0 0 0 0 0 0 0 0 0 0 0 0 0 0 0 0 0 0 0 0
0 0 0 0 0 0 0 0 0 0 0 0 0 0 0 0 0 0 0 0 0 0 0 0 0 0 0 0 0 0 0 0 0 0 0 0 0 0
0 0 0 0 0 0 0 0 0 0 0 0 0 0 0 0 0 0 0 0 0 0 0 0 0 0 0 0 0 0 0 0 0 0 0 0 0 0
0 0 0 0 0 0 0 0 0 0 0 0 0 0 0 0 0 0 0 0 0 0 0 0 0 0 0 0 0 0 0 0 0 0 0 0 0 0
0 0 0 0 0 0 0 0 0 0 0 0 0 0 0 0 0 0 0 0 0 0 0 0 0 0 0 0 0 0 0 0 0 0 0 0 0 0
0 0 0 0 0 0 0 0 0 0 0 0 0 0 0 0 0 0 0 0 0 0 0 0 0 0 0 0 0 0 0 0 0 0 0 0 0 0
0 0 0 0 0 0 0 0 0 0 0 0 0 0 0 0 0 0 0 0 0 0 0 0 0 0 0 0 0 0 0 0 0 0 0 0 0 0
0 0 0 0 0 0 0 0 0 0 0 0 0 0 0 0 0 0 0 0 0 0 0 0 0 0 0 0 0 0 0 0 0 0 0 0 0 0
0 0 0 0 0 0 0 0 0 0 0 0 0 0 0 0 0 0 0 0 0 0 0 0 0 0 0 0 0 0 0 0 0 0 0 0 0 0
0 0 0 0 0 0 0 0 0 0 0 0 0 0 0 0 0 0 0 0 0 0 0 0 0 0 0 0 0 0 0 0 0 0 0 0 0 0
0 0 0 0 0 0 0 0 0 0 0 0 0 0 0 0 0 0 0 0 0 0 0 0 0 0 0 0 0 0 0 0 0 0 0 0 0 0
0 0 0 0 0 0 0 0 0 0 0 0 0 0 0 0 0 0 0 0 0 0 0 0 0 0 0 0 0 0 0 0 0 0 0 0 0 0
0 0 0 0 0 0 0 0 0 0 0 0 0 0 0 0 0 0 0 0 0 0 0 0 0 0 0 0 0 0 0 0 0 0 0 0 0 0
0 0 0 0 0 0 0 0 0 0 0 0 0 0 0 0 0 0 0 0 0 0 0 0 0 0 0 0 0 0 0 0 0 0 0 0 0 0
Wind_Speed
5 5 4 5 4 5 5 4 5 9 8 5 4 4 5 6 14 11 9 19 25 25 25 25 25 25 26 26 26 26 26 26 26 26 26 26 26 26
4 5 6 5 5 5 5 5 6 7 10 4 5 6 7 9 16 12 10 25 25 26 26 25 25 25 25 25 25 25 25 26 26 26 27 27 27 27
6 6 7 7 5 5 5 5 6 6 12 10 5 5 7 10 11 10 11 10 12 24 26 26 26 25 25 24 24 24 24 24 24 24 25 25 26 26
7 7 8 6 7 6 6 7 7 7 9 15 9 6 8 9 10 11 11 11 9 20 26 26 26 25 24 24 23 23 22 22 22 23 23 24 25 25
8 8 9 8 9 7 7 7 7 8 8 11 12 7 6 7 9 10 11 10 11 15 21 22 23 24 24 23 23 22 21 20 21 21 22 22 23 23
8 9 9 9 10 9 8 9 8 9 9 10 11 9 7 7 7 8 9 7 9 10 14 17 20 23 23 23 22 22 21 20 20 21 21 21 21 21
8 8 9 12 16 13 11 8 8 8 8 9 11 10 8 5 6 6 10 9 9 8 8 9 9 8 10 16 19 20 21 20 20 20 20 20 20 20
8 8 9 12 16 21 23 22 19 12 10 10 11 11 10 8 8 8 10 11 9 4 5 7 5 7 7 7 15 21 20 20 20 20 19 19 19 19
8 7 8 9 16 9 16 22 20 24 23 15 14 13 12 10 11 12 11 12 12 7 7 10 7 9 7 9 19 20 20 19 19 18 18 17 17 17
8 9 10 10 10 13 11 11 12 13 15 12 11 13 13 12 12 13 13 12 11 8 7 9 7 7 7 6 15 18 18 17 16 16 15 15 15 15
9 9 10 10 18 23 15 12 12 11 16 22 23 21 24 24 19 9 8 9 10 6 4 5 5 5 5 6 8 13 13 13 13 13 13 13 12 11
8 9 16 17 21 24 14 11 13 12 10 11 13 15 13 14 19 11 7 9 8 6 3 3 4 3 4 3 3 3 4 8 10 10 10 10 10 4
8 6 7 20 24 25 21 12 15 16 9 8 7 7 7 6 7 7 7 7 8 6 3 3 3 3 4 4 2 2 2 2 3 4 7 8 8 5
9 7 9 22 24 24 18 17 23 19 6 5 6 6 6 6 6 6 7 7 8 9 7 6 5 5 5 4 4 2 2 2 2 2 2 5 6 7
9 17 21 25 23 14 16 22 18 7 5 6 7 7 5 6 6 6 6 6 7 7 7 7 7 6 5 4 3 2 2 2 1 2 2 2 2 2
10 15 21 21 16 16 15 10 6 6 7 7 7 6 5 5 5 5 5 4 4 5 5 5 6 6 5 5 4 3 2 2 1 1 1 1 1 1
12 8 6 5 5 5 6 6 5 6 7 6 7 6 6 6 5 4 4 3 4 4 5 3 3 4 6 4 3 3 2 2 2 1 1 1 2 2
15 7 6 6 7 7 7 7 6 7 7 7 7 6 6 6 6 4 4 4 4 4 4 3 3 2 2 3 5 4 2 2 2 1 1 1 2 2
9 6 7 7 7 7 7 7 7 7 6 6 7 6 6 6 5 5 4 4 4 4 4 3 2 2 2 3 4 4 3 2 1 1 1 2 2 2
5 7 7 7 7 7 7 7 7 7 6 6 6 6 6 6 5 5 4 4 5 4 4 3 3 3 4 3 2 2 3 3 2 2 1 1 1 2
6 7 7 7 7 8 8 8 8 8 8 7 6 6 6 5 5 5 5 8 6 4 4 4 4 6 2 1 2 2 2 3 4 2 2 1 0 0
7 8 7 8 8 7 7 8 8 8 7 7 6 6 6 5 6 6 5 5 4 4 5 4 3 2 2 3 3 3 2 2 3 5 5 5 3 3
8 8 8 8 7 7 7 8 9 8 7 6 6 6 6 6 5 5 5 5 5 5 4 3 2 2 2 3 3 3 3 2 1 1 2 5 7 6
Wind_Direction
253 253 249 250 243 240 237 231 257 290 290 246 251 256 266 279 288 290 281 293 297 297 296 294 293 290 287 285 284 284 282 281 279 278 276 275 274 272
254 255 255 253 251 245 241 239 232 258 282 252 247 254 268 280 288 291 288 295 298 298 296 294 292 290 288 286 284 283 281 279 276 275 273 273 271 271
265 258 258 256 253 252 245 242 244 244 274 282 253 255 254 262 275 277 278 280 283 289 292 292 291 290 289 287 285 284 284 282 280 278 276 276 274 272
266 264 264 264 256 253 249 249 250 245 261 284 285 268 256 258 264 267 275 276 273 284 289 291 290 291 291 290 289 286 285 285 285 283 280 279 277 275
260 260 262 262 264 259 252 254 255 258 254 272 284 276 265 264 270 270 268 270 273 278 285 288 289 289 290 290 289 289 289 290 288 285 282 280 280 278
257 255 256 254 258 261 261 257 256 258 260 266 278 281 272 262 263 273 278 265 268 274 278 280 282 287 287 289 291 291 291 291 289 286 282 280 279 277
260 256 255 264 270 274 273 262 253 260 267 273 279 284 280 271 268 269 279 280 270 264 267 268 273 272 276 282 286 287 286 285 283 281 279 277 276 273
265 263 264 276 282 287 290 291 288 282 280 278 282 282 284 277 276 276 281 284 283 247 253 268 258 265 264 255 270 277 280 280 279 278 277 277 276 272
267 269 276 275 289 279 284 287 287 285 284 282 282 282 283 279 278 278 274 273 276 275 273 277 266 267 265 268 277 279 281 281 281 280 279 278 277 275
265 265 269 273 273 280 268 266 262 265 270 274 266 268 271 272 266 271 276 278 274 267 254 271 271 269 271 265 276 280 283 285 284 283 280 277 278 278
266 264 270 269 279 290 289 280 278 273 279 280 280 283 285 292 293 290 285 284 283 272 234 248 267 274 271 266 272 283 289 290 292 291 288 284 283 283
270 264 277 284 290 294 290 283 286 285 280 281 283 285 287 287 290 283 276 279 280 278 242 239 263 277 284 267 269 285 295 300 305 304 300 296 293 293
279 274 268 289 293 295 296 291 289 295 288 286 287 282 277 271 269 265 259 264 273 270 258 257 265 252 256 278 277 263 259 276 304 307 312 309 303 293
285 279 278 291 295 299 301 297 299 306 301 292 286 283 278 276 275 272 266 260 258 266 272 269 269 267 267 267 267 268 272 268 270 284 297 311 316 311
283 288 294 299 304 304 299 301 306 306 293 286 281 278 269 269 277 280 277 273 270 265 264 261 263 266 261 263 267 247 271 284 277 281 296 300 312 325
288 288 294 298 297 296 299 301 292 276 280 278 279 276 274 274 277 276 280 287 287 286 273 260 261 261 261 253 252 251 228 256 294 290 285 295 300 306
292 286 281 284 283 282 281 279 276 280 285 278 278 279 280 280 281 275 269 274 275 284 294 290 271 260 254 249 250 246 242 243 243 244 252 292 295 299
304 295 291 288 289 289 288 288 284 281 279 280 281 278 278 280 283 279 269 267 271 273 276 283 292 292 286 271 236 242 241 245 241 224 215 236 284 298
302 289 287 286 286 286 283 281 283 281 277 277 279 277 275 275 276 276 272 269 269 268 269 267 258 240 238 264 287 242 216 218 203 209 215 212 239 281
275 278 281 282 283 282 281 280 281 281 276 273 273 271 269 271 272 270 267 263 268 268 271 264 244 227 220 227 247 273 239 209 196 206 213 213 270 299
280 278 277 279 280 279 278 278 279 279 276 273 271 268 266 264 266 263 262 272 275 263 263 263 253 256 234 190 232 259 274 241 217 199 179 169 201 307
280 280 280 278 279 277 276 277 277 277 274 270 267 265 261 258 260 261 257 258 256 253 258 264 265 248 193 205 226 237 258 288 258 242 228 208 180 187
279 279 279 279 277 276 275 276 275 275 272 269 267 264 259 257 253 253 254 253 255 258 259 264 255 220 217 212 221 231 235 238 231 228 246 243 236 228